User: anonymous   Login
Location: Huntington Beach
(33.6600°N, 117.9980°W)
Time: 02:24:22
(UTC-07:00)
Language:

Hubble Space Telescope - Orbit

View from above orbital plane
View from above orbital plane
View from above satellite
View from above satellite

Ground track
Ground track

The orbit data is extracted from the following two-line orbital elements,

1 20580U 90037B   17083.75133389 +.00000706 +00000-0 +32697-4 0  9996
2 20580 028.4693 205.4332 0002726 350.1548 139.3983 15.08709548277437
Epoch (UTC): 24 March 2017 18:01:55
Eccentricity: 0.0002726
inclination: 28.4693°
perigee height: 538 km
apogee height: 542 km
right ascension of ascending node: 205.4332°
argument of perigee: 350.1548°
revolutions per day: 15.08709548
mean anomaly at epoch: 139.3983°
orbit number at epoch: 27743

The dashed part of the orbit path shows where the satellite is in the earth's shadow,  

DLR